Location: Bli��� Lhota
(48.7570°N, 14.0120°E)
Time: 04:58:33
(UTC+00:00)

CENTAUR R/B - Pass Details

Date: 18 September 2020
Orbit: 753 x 1435 km, 63.5° (Epoch: 26 October)

Event Time Altitude Azimuth Distance (km) Brightness Sun altitude
Rises 21:15:06 0° 314° (NW) 4,219 6.8 -35.1°
Reaches altitude 10° 21:18:14 10° 303° (WNW) 3,335 5.9 -35.4°
Maximum altitude 21:24:58 29° 249° (WSW) 2,331 4.4 -35.9°
Enters shadow 21:25:43 28° 240° (WSW) 2,356 4.4 -36.0°
